[[{"header":{"parameterUnit":"m.s-1","parameterCategory":1,"la1":30.2991,"la2":30.254,"lo1":-89.0895,"lo2":-89.0444,"dy":0.0017,"dx":0.0017,"nx":28,"ny":28,"refTime":"2023-04-17T15:00:00:Z","depth":0,"parameterNumber":2,"parameterNumberName":"U-component_of_WINDS"},"data":[0,0,0,0,0,0,0,0,0,0,0,0,0,0,0,0,0,0,0,0,0,0,0,0,0,0,0,0,0,0,0,0,0,0,0,0,0,0,0,0,0,0,0,0,0,0,0,0,0,0,0,0,0,0,0,0,0,0,-0.3778,-0.3778,0,-0.3783,-0.3783,-0.3783,-0.378,-0.378,-0.378,-0.378,-0.3786,-0.3786,-0.3786,0,0,0,0,0,0,0,0,0,0,0,0,0,-0.3766,-0.3766,-0.3778,-0.3778,-0.3778,-0.3783,-0.3783,-0.3783,-0.378,-0.378,-0.378,-0.378,-0.3785,-0.3786,-0.3786,0,0,0,0,0,0,0,0,0,0,0,0,0,-0.3771,-0.3766,-0.3778,-0.3777,-0.3777,-0.3783,-0.3783,-0.3783,-0.378,-0.378,-0.378,-0.378,-0.3785,-0.3786,-0.3786,-0.3794,0,0,-0.3788,-0.3788,0,0,0,0,0,0,0,0,-0.3771,-0.3772,-0.3777,-0.3777,-0.3777,-0.3781,-0.3781,-0.3787,-0.378,-0.3779,-0.378,-0.3779,-0.3784,-0.3785,-0.3786,-0.3794,-0.3794,-0.3788,-0.3788,-0.3788,-0.3788,0,0,0,0,0,0,0,-0.377,-0.3771,-0.378,-0.3777,-0.3777,-0.3777,-0.3777,-0.3782,-0.3783,-0.3779,-0.3779,-0.378,-0.3784,-0.3786,-0.3786,-0.3794,-0.3788,-0.3788,-0.3788,-0.3789,-0.381,-0.381,0,0,0,0,0,0,-0.377,-0.3771,-0.378,-0.378,-0.3773,-0.3777,-0.3778,-0.378,-0.3783,-0.3783,-0.378,-0.3779,-0.3785,-0.3786,-0.3787,-0.3796,-0.3788,-0.3789,-0.3789,-0.3809,-0.381,-0.381,0,0,0,0,0,0,-0.377,-0.3771,-0.378,-0.3776,-0.3777,-0.3778,-0.378,-0.378,-0.3782,-0.3783,-0.3783,-0.3781,-0.3785,-0.3786,-0.3792,-0.3797,-0.3789,-0.3789,-0.3809,-0.381,-0.381,-0.3816,0,0,0,0,0,0,-0.3769,-0.3771,-0.3773,-0.3776,-0.3777,-0.3785,-0.378,-0.378,-0.3783,-0.3782,-0.3785,-0.3785,-0.3785,-0.3792,-0.3793,-0.3797,-0.379,-0.3809,-0.3809,-0.381,-0.3815,-0.3816,-0.3817,0,0,0,0,0,-0.3769,-0.3775,-0.3773,-0.3775,-0.378,-0.3785,-0.3786,-0.3786,-0.3783,-0.3786,-0.3787,-0.3785,-0.3796,-0.3792,-0.3793,-0.3798,-0.3808,-0.3809,-0.381,-0.3814,-0.3816,-0.3817,0,0,0,0,0,0,-0.3773,-0.3775,-0.3774,-0.378,-0.3782,-0.3785,-0.3788,-0.3787,-0.379,-0.379,-0.3789,-0.379,-0.3797,-0.3798,-0.3794,-0.3806,-0.3802,-0.3803,-0.3805,-0.3806,-0.3807,-0.3807,-0.379,0,0,0,0,0,-0.3774,-0.3778,-0.378,-0.3785,-0.3786,-0.3787,-0.3789,-0.3789,-0.3791,-0.3792,-0.3794,-0.3797,-0.3801,-0.3804,-0.3807,-0.3815,-0.3816,-0.3819,-0.382,-0.3821,-0.3822,-0.3827,-0.3828,-0.3812,-0.3812,-0.3812,0,0,-0.3777,-0.3779,-0.3781,-0.3786,-0.3788,-0.3792,-0.3788,-0.3792,-0.3796,-0.3793,-0.3799,-0.3801,-0.3804,-0.3811,-0.3814,-0.3812,-0.3826,-0.3822,-0.3822,-0.3823,-0.3828,-0.3829,-0.3831,-0.3813,-0.3813,-0.3813,0,0,-0.3785,-0.3787,-0.3792,-0.3794,-0.3797,-0.3798,-0.3799,-0.3801,-0.3802,-0.3808,-0.3807,-0.3811,-0.3818,-0.382,-0.3823,-0.3833,-0.3831,-0.3834,-0.384,-0.3845,-0.3846,-0.3847,-0.3852,-0.3853,-0.3835,-0.3835,-0.3835,0,-0.3789,-0.3795,-0.3795,-0.38,-0.3802,-0.38,-0.3806,-0.3808,-0.3812,-0.3814,-0.3811,-0.3821,-0.3822,-0.3831,-0.3833,-0.3835,-0.3837,-0.3834,-0.3846,-0.3847,-0.3848,-0.3852,-0.3854,-0.3835,-0.3835,-0.3835,-0.3835,0,-0.38,-0.3805,-0.3808,-0.3813,-0.3815,-0.3821,-0.3821,-0.3824,-0.3824,-0.3825,-0.3832,-0.3834,-0.3839,-0.3841,-0.384,-0.3849,-0.3848,-0.3846,-0.3842,-0.385,-0.3854,-0.3856,-0.3836,-0.3835,-0.3835,-0.3835,0,0,-0.381,-0.3815,-0.3816,-0.3819,-0.3822,-0.3826,-0.3831,-0.3836,-0.3839,-0.3842,-0.3847,-0.3853,-0.3851,-0.3854,-0.3854,-0.3858,-0.3867,-0.3855,-0.3856,-0.3858,-0.3879,-0.3881,-0.3883,-0.3866,-0.3867,-0.3867,-0.3879,0,-0.3819,-0.3829,-0.3829,-0.3838,-0.3842,-0.3841,-0.3846,-0.3849,-0.385,-0.3855,-0.3856,-0.3861,-0.3857,-0.3859,-0.3863,-0.3865,-0.3872,-0.3864,-0.3872,-0.3872,-0.3872,-0.3885,-0.3887,-0.3898,-0.388,-0.3881,-0.3881,0,-0.3831,-0.3835,-0.3844,-0.3848,-0.385,-0.3854,-0.3859,-0.3863,-0.3867,-0.3868,-0.3871,-0.387,-0.3877,-0.3872,-0.3881,-0.3876,-0.3879,-0.3881,-0.3881,-0.3882,-0.3877,-0.3887,-0.3902,-0.3904,-0.3883,-0.3883,-0.3883,0,-0.3839,-0.3846,-0.3853,-0.3855,-0.3859,-0.3862,-0.3864,-0.3868,-0.3871,-0.3875,-0.3878,-0.3882,-0.3885,-0.3889,-0.3891,-0.3887,-0.39,-0.3895,-0.3901,-0.3902,-0.3905,-0.3905,-0.3921,-0.3905,-0.3905,-0.3905,-0.3905,0,-0.3849,-0.3855,-0.3857,-0.3861,-0.3868,-0.3868,-0.3875,-0.3877,-0.388,-0.3885,-0.3884,-0.3889,-0.389,-0.3895,-0.3896,-0.3904,-0.3905,-0.3906,-0.3907,-0.3907,-0.3907,-0.3909,-0.3909,-0.3906,-0.3906,-0.3906,-0.3906,0,-0.3859,-0.386,-0.3867,-0.3871,-0.3872,-0.3877,-0.3881,-0.3885,-0.3887,-0.3893,-0.3895,-0.3897,-0.3903,-0.3905,-0.3912,-0.3912,-0.3922,-0.3921,-0.3921,-0.3921,-0.3928,-0.3928,-0.3947,-0.395,-0.3932,-0.3932,-0.3932,0,-0.3865,-0.387,-0.3874,-0.3878,-0.388,-0.3885,-0.3889,-0.3889,-0.3893,-0.3898,-0.3902,-0.3908,-0.3913,-0.3924,-0.3926,-0.3932,-0.3932,-0.3938,-0.3933,-0.3933,-0.3933,-0.3933,-0.3934,-0.3939,-0.394,-0.394,-0.394,0,-0.3878,-0.3878,-0.3883,-0.3888,-0.3893,-0.3897,-0.3901,-0.3904,-0.3905,-0.3909,-0.3916,-0.392,-0.3928,-0.3934,-0.394,-0.3943,-0.3942,-0.3942,-0.3943,-0.3944,-0.3944,-0.3945,-0.3925,-0.3941,-0.3941,-0.3941,-0.3941,-0.3941,-0.3887,-0.3891,-0.3895,-0.3901,-0.3904,-0.3908,-0.3913,-0.3915,-0.392,-0.3927,-0.3927,-0.3934,-0.3939,-0.3947,-0.395,-0.3956,-0.3954,-0.3957,-0.3958,-0.3959,-0.396,-0.3943,-0.3957,-0.3957,-0.3957,-0.3957,-0.3957,0,-0.3899,-0.3902,-0.3907,-0.3913,-0.3918,-0.3917,-0.3922,-0.3926,-0.3932,-0.3937,-0.3942,-0.395,-0.3956,-0.396,-0.3966,-0.3971,-0.3971,-0.3972,-0.3972,-0.3973,-0.396,-0.3959,-0.3972,-0.3972,-0.3972,-0.3972,-0.3972,-0.3972,-0.3907,-0.3915,-0.3916,-0.3926,-0.3929,-0.3936,-0.3939,-0.3943,-0.3946,-0.3955,-0.3961,-0.3963,-0.3967,-0.3974,-0.3981,-0.3982,-0.3984,-0.3987,-0.3988,-0.3976,-0.3974,-0.3973,-0.3971,-0.3987,-0.3987,-0.4,-0.4,-0.4]},{"header":{"parameterUnit":"m.s-1","parameterCategory":1,"la1":30.2991,"la2":30.254,"lo1":-89.0895,"lo2":-89.0444,"dy":0.0017,"dx":0.0017,"nx":28,"ny":28,"refTime":"2023-04-17T15:00:00:Z","depth":0,"parameterNumber":3,"parameterNumberName":"V-component_of_WINDS"},"data":[0,0,0,0,0,0,0,0,0,0,0,0,0,0,0,0,0,0,0,0,0,0,0,0,0,0,0,0,0,0,0,0,0,0,0,0,0,0,0,0,0,0,0,0,0,0,0,0,0,0,0,0,0,0,0,0,0,0,1.7377,1.7377,0,1.7346,1.7346,1.7346,1.7303,1.7303,1.7302,1.7301,1.7269,1.7269,1.7269,0,0,0,0,0,0,0,0,0,0,0,0,0,1.7399,1.7398,1.7377,1.7377,1.7377,1.7346,1.7346,1.7346,1.7304,1.7303,1.7302,1.7301,1.7269,1.7269,1.7269,0,0,0,0,0,0,0,0,0,0,0,0,0,1.7381,1.7398,1.7377,1.7352,1.7349,1.7346,1.7346,1.7345,1.7304,1.7303,1.7302,1.7301,1.727,1.7269,1.7269,1.7288,0,0,1.7268,1.7268,0,0,0,0,0,0,0,0,1.7382,1.738,1.7356,1.7354,1.7351,1.7328,1.7342,1.7326,1.7304,1.7321,1.7301,1.73,1.729,1.7288,1.7284,1.7287,1.7285,1.7268,1.7268,1.7268,1.7268,0,0,0,0,0,0,0,1.7383,1.7381,1.7365,1.7356,1.7353,1.7342,1.7338,1.7339,1.7312,1.732,1.7316,1.7313,1.7288,1.7285,1.7283,1.7285,1.7268,1.7268,1.7268,1.7267,1.7299,1.73,0,0,0,0,0,0,1.7388,1.7382,1.7366,1.7364,1.7364,1.7342,1.7338,1.7336,1.7312,1.7307,1.7314,1.7311,1.7286,1.7283,1.7282,1.7301,1.7268,1.7267,1.7267,1.7298,1.7299,1.73,0,0,0,0,0,0,1.7389,1.7387,1.7367,1.7372,1.7369,1.7343,1.7341,1.7336,1.7333,1.7308,1.7302,1.7316,1.7285,1.7282,1.7286,1.7299,1.7267,1.7267,1.7297,1.7298,1.73,1.734,0,0,0,0,0,0,1.739,1.7388,1.7395,1.7373,1.7369,1.7373,1.7342,1.7336,1.7332,1.7328,1.7308,1.7303,1.7284,1.7287,1.7286,1.7298,1.7267,1.7296,1.7298,1.7299,1.7337,1.7343,1.7347,0,0,0,0,0,1.7391,1.7408,1.7396,1.7394,1.7378,1.7374,1.7372,1.7349,1.7334,1.734,1.7324,1.7304,1.7298,1.7288,1.7286,1.7299,1.7295,1.7297,1.7299,1.7335,1.7342,1.7347,0,0,0,0,0,0,1.7433,1.7405,1.7391,1.7402,1.7391,1.7367,1.7375,1.7357,1.735,1.7346,1.7318,1.7314,1.7321,1.731,1.7299,1.7315,1.7293,1.7295,1.7321,1.7327,1.7332,1.7334,1.7267,0,0,0,0,0,1.7444,1.7443,1.7419,1.7431,1.7426,1.7401,1.7399,1.7382,1.7369,1.7364,1.7348,1.7336,1.7331,1.7329,1.7323,1.7336,1.733,1.7344,1.7349,1.7353,1.7354,1.7358,1.7363,1.7308,1.7308,1.7308,0,0,1.7466,1.745,1.7452,1.7439,1.7428,1.7427,1.7398,1.7399,1.7397,1.7364,1.7367,1.7355,1.7339,1.7347,1.735,1.7338,1.7368,1.7356,1.7359,1.7358,1.7361,1.7366,1.7371,1.7309,1.7309,1.7309,0,0,1.7505,1.7494,1.7502,1.7491,1.7475,1.7459,1.7461,1.7439,1.743,1.7432,1.7406,1.7404,1.7397,1.7387,1.738,1.7414,1.7394,1.7413,1.7438,1.7442,1.7446,1.745,1.746,1.7464,1.7415,1.7415,1.7415,0,1.7534,1.7532,1.7508,1.751,1.7504,1.7474,1.7481,1.7472,1.7455,1.7451,1.7439,1.7428,1.7416,1.742,1.7428,1.7424,1.7424,1.7415,1.7448,1.7451,1.7454,1.7463,1.7467,1.7417,1.7417,1.7417,1.7417,0,1.7568,1.7567,1.7575,1.7559,1.7554,1.7559,1.7534,1.7532,1.7516,1.75,1.7502,1.7486,1.7475,1.7475,1.746,1.7476,1.7469,1.7453,1.7431,1.7462,1.747,1.7474,1.7421,1.742,1.7419,1.7419,0,0,1.7633,1.7602,1.7606,1.7597,1.7576,1.7575,1.7577,1.7567,1.7565,1.7554,1.7554,1.7548,1.7532,1.7525,1.7508,1.7511,1.7536,1.7494,1.7493,1.7501,1.7551,1.7562,1.7567,1.7524,1.7524,1.7525,1.7552,0,1.7667,1.7669,1.7647,1.7655,1.7653,1.7624,1.7625,1.7613,1.7598,1.7593,1.7577,1.7572,1.7553,1.7548,1.755,1.7533,1.7546,1.7531,1.7522,1.7522,1.7525,1.7571,1.7584,1.761,1.7555,1.7555,1.7556,0,1.7707,1.7697,1.7705,1.7682,1.768,1.7683,1.767,1.7667,1.7651,1.764,1.7631,1.7611,1.7611,1.759,1.7588,1.7579,1.7574,1.7565,1.7565,1.7562,1.754,1.7568,1.7618,1.7621,1.7561,1.756,1.756,0,1.7751,1.774,1.7743,1.7736,1.7711,1.7712,1.7702,1.7685,1.7679,1.7669,1.7664,1.7654,1.7648,1.764,1.7617,1.7604,1.7616,1.7595,1.7606,1.7606,1.7609,1.7609,1.7657,1.7609,1.7609,1.7609,1.7609,0,1.779,1.7795,1.7762,1.7763,1.7768,1.7742,1.7747,1.7733,1.7718,1.7716,1.7691,1.7689,1.7659,1.7654,1.7636,1.7636,1.7634,1.7624,1.7619,1.7625,1.7626,1.762,1.7617,1.761,1.7609,1.7609,1.7609,0,1.7839,1.7817,1.7818,1.7793,1.7787,1.7791,1.7769,1.7769,1.7753,1.775,1.7748,1.7722,1.7714,1.769,1.7677,1.7664,1.7669,1.766,1.7674,1.767,1.7682,1.768,1.7727,1.7731,1.7682,1.7683,1.7683,0,1.7865,1.7868,1.7843,1.784,1.783,1.7825,1.7819,1.7793,1.7788,1.7769,1.7771,1.7761,1.7751,1.7739,1.7719,1.7707,1.7697,1.7714,1.7696,1.7701,1.7695,1.7695,1.7694,1.7718,1.7719,1.7719,1.772,0,1.7911,1.79,1.7893,1.7881,1.7874,1.7864,1.7852,1.7851,1.7822,1.7817,1.7808,1.7801,1.7786,1.7775,1.7761,1.7749,1.7729,1.7726,1.7728,1.7733,1.774,1.7735,1.7683,1.7725,1.7724,1.7724,1.7724,1.7723,1.7948,1.7949,1.7931,1.7923,1.7911,1.7901,1.7898,1.7881,1.7874,1.786,1.7845,1.7838,1.782,1.7798,1.7787,1.778,1.777,1.7773,1.7773,1.7774,1.7776,1.7743,1.7778,1.7777,1.7777,1.7777,1.7777,0,1.7992,1.7979,1.7972,1.7956,1.7949,1.7931,1.7917,1.7912,1.7906,1.7891,1.7882,1.7871,1.786,1.7839,1.7826,1.7824,1.7815,1.7822,1.7821,1.7818,1.7787,1.7786,1.7829,1.7829,1.7829,1.7829,1.7829,1.7829,1.8014,1.8014,1.8,1.7993,1.798,1.7972,1.7965,1.7954,1.7942,1.7931,1.7922,1.7908,1.789,1.7875,1.7864,1.7858,1.7854,1.7863,1.7854,1.7825,1.782,1.7815,1.7814,1.7863,1.7863,1.7885,1.7885,1.7885]}]]